RH
86 88 94 93 92 95 95 93 90 95 96 91 95 96 96 96 97 96 97 96 96 93
92 90 85 94 94 96 96 96 97 95 96 94 94 96 97 98 98 97 97 96 96 96
91 93 90 86 95 94 96 97 97 97 96 94 94 96 97 97 97 98 97 97 97 96
90 90 94 86 93 94 95 96 97 96 96 96 94 98 98 98 98 98 98 96 96 93
89 88 91 93 96 95 95 95 95 96 97 97 97 97 97 97 96 96 95 92 97 97
90 90 91 91 90 93 97 97 97 97 98 97 96 97 96 95 96 96 94 96 96 97
90 90 90 89 89 90 91 95 98 97 96 96 96 96 97 97 97 97 96 96 97 96
88 87 87 89 88 88 90 89 90 95 97 96 98 98 98 96 97 97 98 98 98 97
85 86 89 89 90 89 89 90 91 93 93 94 92 98 99 100 97 98 99 99 99 99
86 86 88 88 90 93 95 93 95 94 94 95 96 97 98 100 99 99 99 100 99 99
88 89 87 88 92 94 95 98 98 98 96 95 96 97 97 97 95 97 97 98 97 99
90 92 91 94 94 94 94 95 96 96 96 98 98 98 97 93 94 97 97 97 98 98
94 95 95 96 96 95 94 96 93 94 96 95 97 100 99 95 97 96 96 96 98 98
92 94 94 94 94 94 94 92 93 94 94 95 97 97 95 94 95 97 95 96 97 98
Wind_Speed
6 4 5 9 8 9 9 11 13 13 12 15 13 12 12 9 9 10 9 12 10 9
8 8 8 7 7 6 7 7 9 12 11 13 13 12 12 9 10 9 9 9 10 10
9 8 7 8 9 10 6 7 9 12 12 12 12 12 12 9 8 9 7 7 9 9
11 12 8 8 8 9 7 9 10 11 11 13 13 11 11 9 8 8 7 7 9 12
13 13 12 10 13 6 9 9 11 11 11 12 12 12 12 11 9 9 9 10 10 11
14 14 13 13 12 13 6 8 8 9 11 11 11 11 10 9 9 9 10 10 10 9
15 14 12 12 13 13 13 10 5 8 9 10 10 10 10 10 9 9 9 8 8 10
14 14 14 14 13 13 14 14 15 9 6 8 7 3 7 8 8 9 8 7 7 8
16 16 17 16 16 13 14 15 15 15 14 15 9 16 13 8 9 8 7 6 6 5
16 16 16 15 15 16 14 13 13 13 14 14 14 22 20 14 2 4 5 3 1 4
15 16 16 15 15 15 13 13 12 12 11 13 12 24 23 15 9 9 9 7 5 3
15 14 15 16 16 13 13 14 14 12 14 14 15 23 21 14 11 11 12 10 9 6
13 13 13 12 13 12 12 12 10 15 16 22 17 25 23 12 8 12 9 11 12 18
12 12 12 10 11 10 11 11 12 13 12 14 18 20 28 26 11 9 10 10 9 9
Wind_Direction
322 289 238 205 195 200 197 202 200 195 196 208 201 197 197 203 204 204 208 212 217 228
327 295 269 217 203 197 203 192 181 192 194 202 205 202 194 200 198 197 205 216 226 230
327 315 259 271 210 208 207 186 178 190 201 204 208 199 195 197 192 195 204 214 229 242
353 350 336 255 242 208 188 189 196 202 200 201 206 190 192 191 178 199 210 223 237 247
1 2 5 0 356 245 202 198 206 207 204 200 199 194 190 188 185 202 221 232 232 234
9 10 4 3 356 2 279 198 200 202 203 200 197 192 183 185 190 205 218 223 225 224
11 9 9 8 10 10 10 1 218 206 215 215 200 187 186 185 192 204 219 223 221 225
15 14 16 17 18 23 30 17 9 352 250 205 205 176 187 195 197 202 213 217 217 221
16 19 19 19 19 25 34 36 27 20 32 16 25 353 353 250 209 195 199 207 193 203
12 19 22 22 19 24 27 29 39 30 38 31 8 11 23 312 196 133 84 61 189 143
15 19 18 23 23 23 26 28 30 32 24 53 27 13 28 8 28 62 58 41 23 73
18 18 21 20 19 19 28 29 31 27 29 37 31 27 31 35 34 45 38 33 31 31
14 22 24 24 21 15 23 30 29 33 29 35 34 31 34 45 46 50 39 35 40 40
16 23 19 22 25 24 29 32 32 35 33 35 39 39 41 44 47 46 50 39 41 41